This is the latest recevied weather packets stored in our database for station/object TG8AKV-17. If no packets are shown the sender has not sent any weather packets the latest 10 day(s).
| Time | Temp. | Humidity | Pressure | Rain* | Wind** | Luminosity | Snow |
|---|---|---|---|---|---|---|---|
| 1778170479 | 20.56° C | 71% | 1016 hPa | 0 mm | - | - | - |
| 1778169878 | 20° C | 75% | 1016 hPa | 0 mm | - | - | - |
| 1778169277 | 18.89° C | 79% | 1016 hPa | 0 mm | - | - | - |
| 1778168909 | 18.89° C | 79% | 1016 hPa | 0 mm | - | - | - |
| 1778168309 | 18.89° C | 78% | 1016 hPa | 0 mm | - | - | - |
| 1778167708 | 18.33° C | 79% | 1017 hPa | 0 mm | - | - | - |
| 1778167107 | 18.33° C | 80% | 1017 hPa | 0 mm | - | - | - |
| 1778166507 | 17.78° C | 81% | 1017 hPa | 0 mm | - | - | - |
| 1778165906 | 16.67° C | 83% | 1017 hPa | 0 mm | - | - | - |
| 1778165306 | 16.67° C | 84% | 1017 hPa | 0 mm | - | - | - |
| 1778164705 | 16.67° C | 84% | 1017 hPa | 0 mm | - | - | - |
| 1778164104 | 16.11° C | 84% | 1017 hPa | 0 mm | - | - | - |
| 1778163504 | 16.11° C | 84% | 1017 hPa | 0 mm | - | - | - |
| 1778162903 | 15.56° C | 84% | 1017 hPa | 0 mm | - | - | - |
| 1778162302 | 15° C | 83% | 1017 hPa | 0 mm | - | - | - |
| 1778161702 | 15° C | 84% | 1017 hPa | 0 mm | - | - | - |
| 1778161101 | 15° C | 86% | 1017 hPa | 0 mm | - | - | - |
| 1778160501 | 14.44° C | 88% | 1017 hPa | 0 mm | - | - | - |
| 1778159900 | 14.44° C | 88% | 1017 hPa | 0 mm | - | - | - |
| 1778159300 | 14.44° C | 90% | 1017 hPa | 0 mm | - | - | - |
| 1778158699 | 14.44° C | 93% | 1017 hPa | 0 mm | - | - | - |
| 1778158098 | 14.44° C | 93% | 1017 hPa | 0 mm | - | - | - |
| 1778157498 | 13.89° C | 93% | 1017 hPa | 0 mm | - | - | - |
| 1778156897 | 13.89° C | 93% | 1017 hPa | 0 mm | - | - | - |
| 1778156297 | 13.89° C | 93% | 1017 hPa | 0 mm | - | - | - |
* Rain latest hour (hover to see other rain measurements)
** Current wind speed in m/s (hover to see current wind gust speed)